Location: Bathurst
(33.4193°S, 149.5775°E)
Time: 21:55:03
(UTC+10:00)

Vanguard 3 - Pass Details

Date: 29 June 2021
Orbit: 508 x 3261 km, 33.4° (Epoch: 25 July)

Event Time Altitude Azimuth Distance (km) Brightness Sun altitude
Rises 23:07:31 0° 254° (WSW) 7,239 12.2 -73.7°
Reaches altitude 10° 23:13:25 10° 263° (W) 6,176 11.7 -74.7°
Enters shadow 23:19:02 20° 275° (W) 5,233 11.2 -75.6°
